EW9311 Weather Reports


Display with metric or nautical units.
time (UTC)temp
F
wind
direction
speed
MPH
gust
MPH
rain 1hr
in
rain 24hr
in
rain mn
in
humidity
%
barometer
mb
20260905001535 62 0 0.0 0.0 0.00 0.00 0.00 73 1021.6
20260905000045 62 0 0.0 0.0 0.00 0.00 0.00 73 1021.8
20260904234535 62 0 0.0 0.0 0.00 0.00 0.00 72 1021.6
20260904233032 62 0 0.0 1.0 0.00 0.00 0.00 71 1021.8
20260904231536 63 0 0.0 0.0 0.00 0.00 0.00 72 1021.7
20260904230034 63 0 0.0 1.0 0.00 0.00 0.00 70 1021.7
20260904224533 62 0 0.0 0.0 0.00 0.00 0.00 71 1022.0
20260904223032 61 0 0.0 0.0 0.00 0.00 0.00 74 1022.1
20260904221535 61 0 0.0 0.0 0.00 0.00 0.00 74 1022.5
20260904220036 61 0 0.0 1.0 0.00 0.00 0.00 72 1022.8
20260904214534 61 0 0.0 0.0 0.00 0.00 0.00 75 1022.6
20260904213039 60 0 0.0 0.0 0.00 0.00 0.00 75 1022.7
20260904211535 58 0 0.0 0.0 0.00 0.00 0.00 78 1022.9
20260904210033 58 0 0.0 0.0 0.00 0.00 0.00 83 1023.2
20260904204536 57 0 0.0 0.0 0.00 0.00 0.00 83 1023.1
20260904203036 56 0 0.0 0.0 0.00 0.00 0.00 85 1023.0
20260904201538 56 0 0.0 0.0 0.00 0.00 0.00 86 1023.0
20260904200034 56 0 0.0 0.0 0.00 0.00 0.00 86 1023.1
20260904194536 55 0 0.0 0.0 0.00 0.00 0.00 87 1023.0
20260904193033 55 0 0.0 0.0 0.00 0.00 0.00 86 1023.1
20260904191535 55 0 0.0 0.0 0.00 0.00 0.00 85 1023.3
20260904190037 55 0 0.0 0.0 0.00 0.00 0.00 85 1023.0
20260904184536 54 0 0.0 0.0 0.00 0.00 0.00 84 1023.2
20260904183034 54 0 0.0 0.0 0.00 0.00 0.00 85 1023.4
20260904181538 53 0 0.0 0.0 0.00 0.00 0.00 85 1023.2
20260904180048 53 0 0.0 0.0 0.00 0.00 0.00 87 1023.1
20260904174542 53 0 0.0 0.0 0.00 0.00 0.00 88 1023.1
20260904173041 53 0 0.0 0.0 0.00 0.00 0.00 89 1023.3
20260904171605 53 0 0.0 1.0 0.00 0.00 0.00 89 1023.6
20260904170034 52 0 0.0 0.0 0.00 0.00 0.00 90 1023.5
20260904164534 52 0 0.0 0.0 0.00 0.00 0.00 90 1023.3
20260904163032 52 0 0.0 0.0 0.00 0.00 0.00 90 1023.0
20260904161549 52 0 0.0 0.0 0.00 0.00 0.00 89 1023.1
20260904160036 51 0 0.0 0.0 0.00 0.00 0.00 90 1023.1
20260904154542 51 0 0.0 0.0 0.00 0.00 0.00 90 1023.2
20260904153041 52 0 0.0 0.0 0.00 0.00 0.00 90 1023.1
20260904151535 52 0 0.0 0.0 0.00 0.00 0.00 89 1023.1
20260904150035 52 0 0.0 0.0 0.00 0.00 0.00 89 1023.2
20260904144537 52 0 0.0 0.0 0.00 0.00 0.00 91 1023.5
20260904143034 51 0 0.0 0.0 0.00 0.00 0.00 91 1023.6
20260904141536 51 0 0.0 0.0 0.00 0.00 0.00 90 1023.3
20260904140037 51 0 0.0 0.0 0.00 0.00 0.00 89 1023.4
20260904134548 51 0 0.0 0.0 0.00 0.00 0.00 89 1023.3
20260904133054 51 0 0.0 0.0 0.00 0.00 0.00 89 1023.2
20260904131535 51 0 0.0 0.0 0.00 0.00 0.00 89 1022.9
20260904130033 51 0 0.0 0.0 0.00 0.00 0.00 89 1022.9
20260904124535 50 0 0.0 0.0 0.00 0.00 0.00 91 1023.0
20260904123036 50 0 0.0 0.0 0.00 0.00 0.00 91 1023.1
20260904121535 49 0 0.0 0.0 0.00 0.00 0.00 90 1023.3
20260904120051 49 0 0.0 0.0 0.00 0.00 0.00 92 1023.4
20260904114534 49 0 0.0 0.0 0.00 0.00 0.00 90 1023.5
20260904113036 50 0 0.0 0.0 0.00 0.00 0.00 89 1023.6
20260904111535 51 0 0.0 0.0 0.00 0.00 0.00 89 1023.5
20260904110033 51 0 0.0 0.0 0.00 0.00 0.00 87 1023.3
20260904104559 51 0 0.0 0.0 0.00 0.00 0.00 88 1023.6
20260904103037 50 0 0.0 0.0 0.00 0.00 0.00 88 1023.7
20260904101541 49 0 0.0 0.0 0.00 0.00 0.00 88 1023.8
20260904100035 49 0 0.0 0.0 0.00 0.00 0.00 89 1023.7
20260904094548 49 0 0.0 0.0 0.00 0.00 0.00 89 1023.3
20260904093037 49 0 0.0 0.0 0.00 0.00 0.00 89 1022.9
20260904091538 49 0 0.0 0.0 0.00 0.00 0.00 88 1022.8
20260904090033 50 0 0.0 0.0 0.00 0.00 0.00 87 1022.7
20260904084534 50 0 0.0 0.0 0.00 0.00 0.00 86 1022.9
20260904083036 51 0 0.0 0.0 0.00 0.00 0.00 85 1022.9
20260904081536 51 0 0.0 0.0 0.00 0.00 0.00 86 1022.8
20260904080036 50 0 0.0 0.0 0.00 0.00 0.00 87 1022.8
20260904074534 50 0 0.0 0.0 0.00 0.00 0.00 87 1023.0
20260904073037 51 0 0.0 0.0 0.00 0.00 0.00 87 1023.1
20260904071536 51 0 0.0 0.0 0.00 0.00 0.00 86 1023.3
20260904070041 52 0 0.0 0.0 0.00 0.00 0.00 86 1023.1
20260904064537 52 0 0.0 0.0 0.00 0.00 0.00 85 1023.1
20260904063040 53 0 0.0 0.0 0.00 0.00 0.00 85 1023.2
20260904061535 53 0 0.0 0.0 0.00 0.00 0.00 84 1023.2
20260904060107 54 0 0.0 0.0 0.00 0.00 0.00 83 1023.1
20260904054533 55 0 0.0 0.0 0.00 0.00 0.00 81 1023.0
20260904053117 56 0 0.0 0.0 0.00 0.00 0.00 79 1022.9
20260904051549 57 0 0.0 0.0 0.00 0.00 0.00 76 1022.8
20260904050037 59 0 0.0 0.0 0.00 0.00 0.00 73 1022.7
20260904044538 60 0 0.0 0.0 0.00 0.00 0.00 70 1022.7
20260904043035 61 0 0.0 0.0 0.00 0.00 0.00 66 1022.9
20260904041536 61 0 0.0 0.0 0.00 0.00 0.00 67 1022.7
20260904040043 61 0 0.0 0.0 0.00 0.00 0.00 65 1022.7
20260904034537 61 0 0.0 0.0 0.00 0.00 0.00 65 1022.8
20260904033040 61 0 0.0 0.0 0.00 0.00 0.00 64 1023.0
20260904031533 62 0 0.0 0.0 0.00 0.00 0.00 64 1022.9
20260904030036 62 0 0.0 0.0 0.00 0.00 0.00 64 1023.0
20260904024536 63 0 0.0 0.0 0.00 0.00 0.00 65 1023.1
20260904023045 63 0 0.0 1.0 0.00 0.00 0.00 62 1022.8
20260904021536 62 0 0.0 0.0 0.00 0.00 0.00 62 1022.7
20260904020038 62 0 0.0 0.0 0.00 0.00 0.00 62 1022.5
20260904014536 62 0 0.0 0.0 0.00 0.00 0.00 60 1022.5
20260904013035 62 0 0.0 0.0 0.00 0.00 0.00 59 1022.4
20260904011536 61 0 0.0 0.0 0.00 0.00 0.00 63 1022.5
20260904010035 60 0 0.0 0.0 0.00 0.00 0.00 63 1022.4
20260904004535 60 0 0.0 0.0 0.00 0.00 0.00 61 1022.7
20260904003038 61 0 0.0 0.0 0.00 0.00 0.00 58 1022.5